Location: Caixon
(43.4106°N, 0.0273°E)
Time: 14:56:02
(UTC+00:00)

Cosmos 1707 - Pass Details

Date: 16 October 2021
Orbit: 513 x 529 km, 82.5° (Epoch: 28 November)

Event Time Altitude Azimuth Distance (km) Brightness Sun altitude
Rises 05:16:18 0° 201° (SSW) 2,653 6.1 -11.4°
Reaches altitude 10° 05:18:30 10° 208° (SSW) 1,770 5.2 -11.0°
Maximum altitude 05:22:14 45° 282° (WNW) 736 3.0 -10.4°
Drops below altitude 10° 05:26:00 10° 356° (N) 1,786 5.4 -9.7°
Sets 05:28:14 0° 3° (N) 2,681 6.3 -9.3°
